Regional Weather Roundup
Issued by NWS

Home | Current Version | Previous Version | Text Only | Print | Product List | Glossary On
Versions: 1 2 3 4 5 6 7 8 9 10 11 12 13 14 15 16 17 18 19 20 21 22 23 24 25 26 27 28 29 30 31 32 33 34 35 36 37 38 39 40 41 42 43 44 45 46 47 48 49 50
000
ASUS42 KKEY 221610
RWRKEY

FLORIDA REGIONAL WEATHER ROUNDUP FOR THE FLORIDA KEYS
NATIONAL WEATHER SERVICE KEY WEST FLORIDA
1200 PM EDT TUE JUL 22 2014

...SOUTH FLORIDA AND THE KEYS...

CITY           SKY/WX    TMP DP  RH WIND       PRES   REMARKS
FORT MYERS     CLOUDY    86  76  71 W9        30.05F HX  96
SW REGIONAL AP MOSUNNY   86  75  69 CALM      30.05F HX  95
NAPLES         LGT RAIN  81  80  97 SE3       30.06S HX  91
MIAMI          CLOUDY    86  76  71 SE10      30.08S HX  96
WEST KENDALL   CLOUDY    80  75  84 S6        30.08S
HOMESTEAD      TSTM      81  75  83 S6        30.10R
MARATHON       PTSUNNY   81  76  84 E6        30.08R
BOCA CHICA NAS LGT RAIN  78  73  84 SE10      30.08F VSB 1
KEY WEST INTL  LGT RAIN  79  72  79 S10       30.08S

...INTERNATIONAL WEATHER...

CITY           SKY/WX    TMP DP  RH WIND       PRES   REMARKS
NASSAU BAHAMAS NOT AVBL
CANCUN MEXICO  SUNNY     88  75  66 E7        30.04S HX  97
COZUMEL MEXICO PTSUNNY   84  75  74 NE8       30.04S HX  92

ADJACENT COASTAL WATERS...

STATION/POSITION TIME  SKY/WX   TEMP    WIND        PRES    WAVE
                                AIR SEA DIR/SP/G            HT/PER
                 (UTC)          (F)     (DEG/KT/KT) (MB)    (FT/S)
PULASKI SHOAL LI 1600            81     210/  5/  6 1018.4R
SAND KEY         1600            78     110/  4/  5 1018.6F
SOMBRERO KEY     1600            78     360/  6/  8 1019.6R
LONG KEY         1500            76 87   50/  8/ 10 1019.5R
MOLASSES REEF    1600            79 86  280/ 23/ 24 1018.2F
FOWEY ROCKS      1600            83 85  160/ 12/ 13 1018.8S
Buoy 42080       NOT AVBL

$$


USA.gov is the U.S. government's official web portal to all federal, state and local government web resources and services.